Theta_e
297 298 298 300 301 303 304 304 304 305 305 303 301 305 305 304 304 305 308 309 310 310 310 310 311 311 311 310 310 309 310 312 311 312 311 308 308 310 312 315 314 311 315 317
296 296 296 297 299 301 303 303 304 304 305 305 304 303 305 304 304 305 306 307 308 309 309 310 309 310 308 308 310 310 311 312 314 312 308 308 309 308 309 310 311 314 315 317
293 293 293 292 297 300 302 302 302 302 303 302 303 304 304 304 303 304 304 306 306 307 308 308 308 309 308 308 307 309 309 312 313 314 311 309 312 312 311 310 314 313 312 313
293 294 294 293 294 298 301 301 301 302 303 302 303 302 303 303 303 304 304 305 305 306 306 306 307 307 307 307 308 309 309 311 311 311 313 311 312 311 312 311 310 312 312 310
292 293 294 293 292 297 299 300 300 300 301 302 303 303 303 303 303 303 304 305 305 306 306 306 306 306 306 306 306 307 308 310 309 309 309 310 312 312 312 312 311 309 310 311
293 292 293 292 293 293 297 298 299 299 301 302 303 303 303 303 303 303 303 304 305 304 305 304 304 304 304 305 306 306 307 308 307 307 307 309 311 311 311 312 311 309 310 310
294 293 293 291 293 294 293 297 298 299 300 301 302 302 302 303 302 303 303 303 304 303 303 303 304 305 305 306 307 306 307 308 308 309 309 310 309 308 309 310 311 308 306 305
295 294 293 293 292 293 294 294 296 297 298 298 299 300 301 301 302 303 302 302 301 302 303 306 304 305 305 306 306 307 307 307 307 309 310 309 309 307 306 308 309 310 308 306
295 295 294 293 292 293 293 294 294 294 294 296 296 298 298 299 302 301 301 302 302 302 305 306 306 304 305 305 306 306 306 307 307 310 310 309 308 306 305 306 308 304 306 306
296 296 295 293 292 292 293 294 294 294 294 294 294 296 297 300 300 301 300 302 303 303 305 305 305 306 305 306 305 306 307 308 308 309 308 309 306 304 304 306 306 303 304 304
295 295 295 294 293 290 292 293 294 293 294 293 294 294 294 295 295 297 297 299 303 303 303 306 305 305 305 306 305 305 305 306 308 309 310 309 304 304 305 305 302 305 305 305
294 295 295 294 294 291 291 294 293 293 293 293 294 294 293 294 295 296 297 299 300 301 301 301 305 305 304 304 305 303 306 306 307 307 308 305 304 303 302 303 303 304 304 304
293 295 295 295 294 291 291 293 292 292 293 292 293 293 293 293 294 294 295 296 297 300 300 300 302 304 303 304 304 303 303 304 305 304 304 303 303 304 304 304 305 305 306 305
294 295 294 294 293 291 291 292 292 292 292 293 293 293 293 294 294 293 294 295 297 299 301 300 301 303 301 302 302 303 303 304 305 304 304 303 303 303 303 304 305 306 306 305
294 295 294 293 292 290 291 291 291 291 292 293 293 293 294 293 294 294 294 294 296 297 298 300 302 300 300 300 300 302 301 304 305 306 303 303 303 304 305 304 304 305 306 305
293 293 293 292 290 291 291 291 291 291 291 293 294 293 293 294 296 297 298 296 295 296 298 299 300 301 300 302 301 300 301 301 301 302 301 301 302 302 303 304 305 305 305 305
293 293 291 290 290 291 291 291 293 292 292 293 294 293 294 296 295 296 297 297 297 297 297 299 300 300 300 299 302 302 300 300 300 299 299 300 300 300 301 302 302 304 304 305
291 290 290 290 290 290 291 291 293 293 293 293 294 294 295 296 297 298 298 299 298 298 299 298 299 298 299 301 301 300 300 299 299 299 299 299 299 300 301 301 300 300 300 299
290 290 290 291 291 291 291 290 291 291 291 293 292 294 295 297 298 298 297 298 299 297 300 300 298 299 300 300 299 298 298 298 298 298 298 298 299 299 299 299 299 300 300 300
290 289 289 290 290 291 292 291 291 292 292 292 294 295 297 297 297 298 298 296 298 300 299 296 299 300 298 299 298 298 298 298 298 297 298 298 298 298 298 298 298 299 299 299
289 289 290 291 291 291 291 291 292 291 293 294 294 294 295 296 298 298 295 297 297 298 298 299 299 299 298 298 298 298 299 300 300 298 297 298 298 298 300 301 301 300 299 301
290 290 291 291 292 291 291 291 294 294 296 295 296 297 298 298 298 297 295 296 295 296 295 297 297 298 297 297 298 299 300 301 300 300 298 298 298 298 298 299 300 300 300 299
291 293 292 291 292 294 293 291 295 294 294 294 296 299 298 297 296 294 295 296 295 294 296 297 297 296 297 297 298 300 300 300 299 298 297 296 297 298 299 299 300 300 301 301
291 293 293 293 293 293 293 294 294 293 293 294 297 296 297 295 296 292 295 293 295 296 295 297 296 296 296 296 297 298 299 298 297 296 297 296 297 298 299 299 300 300 301 300
293 292 289 291 293 292 292 292 292 294 294 296 296 296 296 295 294 293 294 295 295 295 297 296 295 296 296 297 298 298 297 297 296 295 294 294 294 296 297 298 298 298 299 299
293 292 290 290 290 290 290 291 293 294 294 296 295 293 294 295 295 295 294 295 295 295 295 296 296 298 298 298 298 298 296 296 295 295 294 292 293 294 296 297 297 297 297 296
293 290 290 290 289 290 291 292 294 295 294 295 295 292 293 293 294 295 294 294 294 294 295 296 297 298 298 297 297 297 297 297 296 295 294 293 293 294 295 296 296 296 296 295
Wind_Speed
24 22 23 23 20 18 20 18 5 12 20 7 4 9 6 7 12 9 3 8 15 12 9 4 3 7 3 12 11 17 5 4 7 12 9 4 4 11 12 9 17 4 7 12
22 23 23 22 23 21 22 9 8 17 30 6 11 3 10 9 5 3 5 5 3 2 3 6 8 11 9 18 7 3 4 4 5 12 1 1 5 4 7 5 2 12 10 7
20 17 16 16 21 23 20 9 3 8 18 9 8 15 10 9 9 11 13 5 2 4 8 11 8 8 4 13 14 5 6 4 9 11 9 1 9 15 13 10 6 12 14 15
18 16 14 14 16 20 21 12 5 6 4 5 7 8 5 11 8 9 10 4 15 15 11 14 14 14 13 13 13 13 7 6 12 13 11 16 18 19 23 14 14 14 17 14
18 17 15 13 14 18 16 7 4 5 3 5 10 7 7 15 4 6 5 12 9 7 11 14 14 10 8 7 6 11 6 6 11 20 20 18 19 19 23 21 18 14 17 19
19 19 17 14 15 17 12 12 10 6 6 5 5 5 7 9 7 8 24 12 8 10 17 15 19 17 18 16 14 13 12 7 9 13 16 13 12 22 23 25 20 17 17 16
22 20 17 16 18 19 20 9 10 5 3 2 3 2 2 6 13 14 6 10 14 10 6 14 12 10 16 20 19 17 12 9 7 10 9 12 10 6 14 18 21 21 12 6
28 23 20 19 19 20 20 19 11 6 4 4 7 7 8 11 13 10 12 16 18 19 9 3 4 3 5 9 18 17 16 11 6 8 11 12 13 7 7 9 11 18 20 12
31 29 24 20 20 20 19 18 15 8 1 7 10 6 7 5 7 8 12 15 10 12 4 4 5 5 4 4 3 4 10 11 6 5 5 7 6 5 9 7 8 6 15 12
28 36 30 23 20 21 21 15 16 12 6 11 12 4 6 5 3 3 0 5 4 13 4 9 8 7 0 4 6 5 4 4 11 10 9 8 6 6 4 8 2 2 10 8
28 24 30 23 18 19 21 20 17 21 10 15 8 8 14 14 16 5 9 7 6 5 5 3 3 4 4 3 4 4 8 5 5 6 7 8 1 4 2 4 1 2 3 7
31 29 27 26 23 20 21 18 19 18 18 10 5 13 21 28 20 12 5 5 5 5 3 6 3 2 4 4 3 2 4 5 2 4 3 8 11 11 14 13 0 2 7 10
31 30 29 28 25 21 23 20 17 17 14 21 26 23 32 29 24 25 18 15 9 7 5 2 4 4 3 4 5 4 3 5 2 1 1 4 17 19 18 20 8 7 8 10
30 31 34 32 24 21 21 21 19 19 5 5 11 16 21 15 19 32 39 32 24 18 7 2 5 3 3 3 2 3 3 5 5 4 8 9 17 20 23 21 13 9 7 8
27 26 23 20 18 18 18 17 18 20 20 3 6 13 20 23 24 28 29 34 31 23 9 3 3 3 2 2 1 3 6 6 5 5 5 3 7 9 7 9 13 10 11 12
23 21 21 19 18 18 15 8 20 22 23 8 4 7 18 16 12 19 23 29 26 23 10 6 7 8 5 3 2 7 17 20 19 10 12 11 11 8 11 10 7 8 11 12
25 24 19 18 18 20 20 6 3 15 26 7 3 4 8 9 19 20 20 22 19 18 14 9 8 4 7 3 6 12 18 20 19 18 18 12 11 11 10 12 12 11 12 14
24 19 18 15 15 14 19 15 6 8 20 8 3 4 3 8 7 7 18 15 19 16 9 4 3 6 5 4 11 16 19 20 20 18 16 18 21 19 19 20 22 23 23 21
22 19 18 16 12 8 11 11 14 15 7 3 5 4 4 4 5 9 10 11 5 9 5 5 8 3 5 7 7 13 13 9 16 19 18 18 17 18 19 18 17 18 19 18
25 23 8 6 7 8 9 6 6 8 7 9 5 8 4 4 5 3 5 4 3 3 2 8 3 4 13 23 24 26 25 22 18 16 14 14 15 17 19 20 21 21 22 20
19 8 5 7 13 11 5 4 6 5 4 9 10 17 8 11 3 1 0 2 1 3 3 3 2 3 5 13 3 4 7 6 4 7 11 12 12 17 18 19 21 22 23 25
10 7 11 9 6 5 5 4 3 5 5 4 4 6 10 4 2 1 2 3 1 3 5 3 3 4 6 5 3 5 5 4 4 5 7 8 9 12 15 17 17 18 19 21
13 3 5 6 7 5 6 6 4 3 4 8 6 4 7 5 4 2 1 2 2 6 2 3 4 2 4 3 4 7 7 7 7 8 9 9 8 12 15 16 15 18 19 18
2 2 5 4 3 4 4 3 2 4 4 12 12 3 2 3 2 1 3 1 3 2 2 4 2 9 7 6 7 7 7 8 8 8 9 10 9 12 13 13 13 16 18 16
3 3 4 5 5 7 6 7 6 5 5 13 6 3 2 1 3 1 3 3 4 5 4 2 6 8 5 5 3 4 7 9 9 10 10 11 12 10 10 9 11 16 17 15
3 4 2 4 1 3 1 0 0 1 8 7 2 2 2 1 3 3 5 6 4 3 3 8 5 3 2 2 2 6 7 8 10 11 12 12 12 10 7 9 11 13 14 7
3 3 4 3 3 4 4 4 5 4 1 1 1 2 1 2 1 2 2 3 3 7 8 7 6 2 0 2 4 5 8 11 13 14 12 10 12 10 7 7 7 6 6 1
Wind_Direction
245 247 244 240 234 226 224 218 207 198 191 166 207 223 217 231 263 294 278 242 249 261 272 263 224 247 308 332 343 320 51 284 287 273 284 236 222 249 229 233 238 237 260 256
244 247 246 239 227 218 219 214 203 189 186 213 211 236 231 239 215 196 219 249 225 254 241 257 246 256 275 272 256 251 168 212 298 307 275 230 239 253 254 234 223 227 232 258
238 236 236 230 218 215 218 205 185 175 210 219 225 215 232 230 235 233 230 243 200 239 246 244 261 267 313 315 316 348 334 217 226 252 265 258 292 303 306 304 229 243 235 252
232 232 230 226 212 211 216 194 208 202 199 218 218 207 212 219 221 216 197 233 236 245 259 263 258 275 283 278 273 263 190 264 248 246 253 274 269 276 282 259 266 240 245 251
234 231 228 220 218 208 217 213 157 200 165 203 205 190 200 223 170 205 214 228 228 216 231 238 272 267 272 268 268 261 243 249 262 264 268 259 252 252 254 261 246 265 264 248
231 232 225 215 208 212 214 228 248 200 196 164 198 206 212 218 204 240 244 240 254 240 252 266 259 260 267 259 256 257 260 259 273 277 277 280 261 239 243 248 245 232 231 251
229 230 225 216 204 219 219 209 222 256 268 222 201 178 146 259 244 238 243 243 220 232 286 278 274 253 257 252 249 229 242 240 253 270 273 248 251 208 232 241 243 219 226 213
227 227 225 217 209 214 221 222 220 219 261 256 276 280 275 271 275 252 236 221 247 270 280 241 256 254 252 242 236 227 217 227 244 255 259 281 285 242 197 186 244 224 232 227
217 222 224 219 210 210 223 227 219 200 182 242 227 257 281 287 270 246 250 267 254 224 201 213 225 234 238 263 303 4 217 215 217 224 265 276 289 266 215 173 266 214 214 218
233 221 218 213 212 210 215 218 214 197 222 250 244 206 230 229 272 281 359 342 215 207 208 211 230 232 336 232 244 201 163 205 232 240 253 262 275 318 182 191 247 130 194 170
231 227 215 209 213 211 215 219 212 209 234 253 232 227 236 252 263 267 310 341 238 189 213 225 182 214 208 257 245 216 227 229 221 227 233 251 356 68 238 259 182 158 191 193
223 220 215 211 213 219 214 217 225 224 236 258 262 259 254 250 253 271 244 249 305 235 351 333 322 198 201 206 247 250 235 226 233 224 282 335 323 291 299 244 306 278 257 239
218 216 216 216 211 215 217 217 210 213 247 271 263 262 263 256 248 251 243 252 238 244 230 266 275 222 166 201 224 199 226 184 246 256 118 302 288 288 292 290 258 269 279 234
215 212 214 216 200 208 210 215 219 219 228 263 272 275 262 260 248 243 244 248 245 256 268 300 292 266 272 237 224 197 220 169 226 244 268 237 235 263 264 265 260 253 241 206
209 209 202 191 194 204 210 222 229 227 211 260 279 274 269 269 264 254 249 243 239 242 248 227 246 267 330 253 278 232 202 209 196 239 230 226 293 318 327 277 250 260 227 206
194 189 188 191 195 191 196 226 238 230 225 248 264 275 269 260 245 243 253 240 227 220 214 227 232 237 171 264 251 244 240 246 257 266 288 303 298 291 305 306 304 253 252 233
183 183 172 187 186 195 185 199 213 217 212 233 267 265 250 257 243 236 236 224 207 212 220 227 247 255 217 226 262 262 258 262 270 277 287 278 261 282 282 258 255 256 257 247
151 160 168 169 177 193 213 217 195 152 195 197 239 263 290 225 198 203 186 186 191 193 199 190 202 183 226 250 243 263 267 270 276 284 281 270 280 278 262 269 273 272 272 271
149 152 149 148 177 190 224 224 256 281 246 226 218 219 256 195 250 199 173 170 179 162 177 193 166 184 220 233 245 264 286 278 292 303 297 289 282 282 281 280 276 274 274 274
151 149 142 172 197 141 156 185 209 217 215 217 242 246 266 269 184 237 133 184 147 153 142 135 191 247 260 262 269 279 289 293 295 281 282 295 284 281 283 282 281 277 271 266
151 153 152 133 157 158 195 204 198 206 226 213 233 217 240 257 212 265 30 122 31 120 157 158 177 260 239 242 271 294 282 297 302 269 269 279 282 288 291 288 288 287 279 267
147 137 124 140 183 192 190 217 202 211 228 205 207 196 184 188 151 295 49 97 91 140 135 145 207 252 246 252 262 282 293 290 298 297 297 294 299 299 300 303 305 299 287 270
133 119 141 166 213 204 189 205 216 221 207 191 181 160 160 143 168 88 115 97 132 121 145 218 231 237 175 262 260 264 274 285 294 305 302 305 314 325 314 313 316 314 303 287
153 178 224 216 205 238 209 231 226 255 264 185 172 130 178 159 116 145 93 89 143 162 229 230 237 220 206 238 252 265 282 288 296 307 314 316 325 319 301 311 322 328 328 308
239 197 239 225 246 270 262 261 264 244 212 162 135 106 158 69 96 83 117 156 228 219 225 231 218 201 249 264 273 311 314 313 314 317 319 325 318 307 306 310 325 334 329 325
250 235 274 239 295 295 316 330 205 150 165 164 119 118 74 157 150 151 209 165 217 244 226 236 219 211 182 119 357 339 325 318 313 313 325 325 323 313 305 328 335 332 332 340
243 243 249 246 267 262 325 350 24 39 348 85 98 75 136 86 344 263 176 204 224 229 241 250 225 195 277 325 302 308 312 313 312 308 302 310 315 298 294 301 317 322 331 350